• In Austria
  • List of Countries
  • For 7 days
  • Water Temperature
  • Satellite Maps
  • Weather Map
  • News
  • Weather Widgets
  • user-avatar
    Login

    Hourly Weather Smolan

    Today, 25 February, Sunday

    Time Temperature Precipitation Wind Pressure Humidity
    00:00 -1°C° 0.1 mm 1 mps 648 mmHg 88%
    01:00 -2°C° 0.1 mm 1 mps 649 mmHg 89%
    02:00 -3°C° 0 mm 2 mps 649 mmHg 89%
    03:00 -4°C° 0.1 mm 2 mps 649 mmHg 89%
    04:00 -4°C° 0.1 mm 2 mps 649 mmHg 89%
    05:00 -2°C° 0.1 mm 1 mps 649 mmHg 89%
    06:00 -4°C° 0.1 mm 2 mps 649 mmHg 88%
    07:00 -4°C° 0.1 mm 2 mps 650 mmHg 88%
    08:00 -4°C° 0 mm 2 mps 650 mmHg 87%
    09:00 -4°C° 0.3 mm 2 mps 650 mmHg 86%
    10:00 -4°C° 0.3 mm 2 mps 650 mmHg 85%
    11:00 -5°C° 0.3 mm 3 mps 651 mmHg 84%
    12:00 -5°C° 0.3 mm 3 mps 650 mmHg 82%
    13:00 -4°C° 0.3 mm 3 mps 650 mmHg 81%
    14:00 -5°C° 0 mm 3 mps 650 mmHg 82%
    15:00 -5°C° 0.1 mm 3 mps 650 mmHg 82%
    16:00 -5°C° 0.1 mm 3 mps 650 mmHg 82%
    17:00 -5°C° 0.1 mm 3 mps 650 mmHg 82%
    18:00 -6°C° 0.2 mm 3 mps 650 mmHg 85%
    19:00 -7°C° 0.2 mm 3 mps 650 mmHg 88%
    20:00 -7°C° 0.2 mm 3 mps 649 mmHg 90%
    21:00 -7°C° 0.2 mm 3 mps 649 mmHg 90%
    22:00 -8°C° 0.2 mm 3 mps 649 mmHg 91%
    23:00 -8°C° 0.2 mm 3 mps 649 mmHg 91%

    Tomorrow, 26 February, Monday

    Time Temperature Precipitation Wind Pressure Humidity
    00:00 -8°C° 0.2 mm 3 mps 648 mmHg 91%
    01:00 -8°C° 0.2 mm 3 mps 648 mmHg 90%
    02:00 -8°C° 0.2 mm 3 mps 647 mmHg 90%
    03:00 -8°C° 0.5 mm 3 mps 647 mmHg 91%
    04:00 -9°C° 0.5 mm 4 mps 646 mmHg 91%
    05:00 -9°C° 0.5 mm 4 mps 646 mmHg 92%
    06:00 -9°C° 0.9 mm 4 mps 646 mmHg 92%
    07:00 -10°C° 0.9 mm 5 mps 645 mmHg 92%
    08:00 -10°C° 0.9 mm 5 mps 645 mmHg 92%
    09:00 -10°C° 1 mm 5 mps 645 mmHg 92%
    10:00 -10°C° 1 mm 6 mps 644 mmHg 92%
    11:00 -10°C° 1 mm 6 mps 644 mmHg 91%
    12:00 -10°C° 1.4 mm 6 mps 643 mmHg 91%
    13:00 -11°C° 1.4 mm 7 mps 643 mmHg 91%
    14:00 -11°C° 1.4 mm 7 mps 642 mmHg 92%
    15:00 -11°C° 1.6 mm 6 mps 642 mmHg 92%
    16:00 -11°C° 1.6 mm 6 mps 642 mmHg 92%
    17:00 -11°C° 1.6 mm 6 mps 642 mmHg 92%
    18:00 -11°C° 1 mm 5 mps 642 mmHg 92%
    19:00 -12°C° 1 mm 5 mps 642 mmHg 92%
    20:00 -12°C° 1 mm 5 mps 642 mmHg 92%
    21:00 -11°C° 0.6 mm 4 mps 642 mmHg 92%
    22:00 -11°C° 0.6 mm 4 mps 643 mmHg 92%
    23:00 -10°C° 0.6 mm 3 mps 643 mmHg 92%

    Day after tomorrow, 27 February, Tuesday

    Time Temperature Precipitation Wind Pressure Humidity
    00:00 -12°C° 0.3 mm 3 mps 643 mmHg 92%
    01:00 -12°C° 0.3 mm 3 mps 643 mmHg 91%
    02:00 -10°C° 0.3 mm 2 mps 643 mmHg 91%
    03:00 -10°C° 0.1 mm 2 mps 643 mmHg 92%
    04:00 -10°C° 0.1 mm 2 mps 643 mmHg 92%
    05:00 -9°C° 0.1 mm 1 mps 643 mmHg 93%
    06:00 -9°C° 0.2 mm 1 mps 644 mmHg 93%
    07:00 -8°C° 0.2 mm 1 mps 644 mmHg 93%
    08:00 -8°C° 0.2 mm 1 mps 644 mmHg 93%
    09:00 -8°C° 0.3 mm 2 mps 645 mmHg 92%
    10:00 -8°C° 0.3 mm 2 mps 645 mmHg 92%
    11:00 -7°C° 0.3 mm 2 mps 645 mmHg 92%
    12:00 -6°C° 0.3 mm 2 mps 645 mmHg 93%
    13:00 -6°C° 0.3 mm 2 mps 645 mmHg 94%
    14:00 -6°C° 0.3 mm 2 mps 645 mmHg 95%
    15:00 -6°C° 0.1 mm 2 mps 646 mmHg 95%
    16:00 -6°C° 0.1 mm 2 mps 646 mmHg 94%
    17:00 -5°C° 0.1 mm 2 mps 646 mmHg 94%
    18:00 -6°C° 0 mm 1 mps 647 mmHg 94%
    19:00 -7°C° 0 mm 1 mps 647 mmHg 95%
    20:00 -8°C° 0 mm 1 mps 647 mmHg 95%
    21:00 -9°C° 0 mm 1 mps 647 mmHg 94%
    22:00 -9°C° 0 mm 1 mps 647 mmHg 93%
    23:00 -10°C° 0 mm 1 mps 647 mmHg 91%

    28 February, Wednesday

    Time Temperature Precipitation Wind Pressure Humidity
    00:00 -9°C° 0 mm 1 mps 647 mmHg 91%
    01:00 -10°C° 0 mm 2 mps 647 mmHg 90%
    02:00 -10°C° 0 mm 2 mps 647 mmHg 90%
    03:00 -10°C° 0.4 mm 2 mps 647 mmHg 91%
    04:00 -9°C° 0.4 mm 2 mps 647 mmHg 93%
    05:00 -9°C° 0.4 mm 2 mps 647 mmHg 95%
    06:00 -9°C° 0.7 mm 2 mps 647 mmHg 95%
    07:00 -9°C° 0.7 mm 2 mps 647 mmHg 95%
    08:00 -9°C° 0.7 mm 2 mps 647 mmHg 95%
    09:00 -8°C° 0.9 mm 2 mps 647 mmHg 94%
    10:00 -9°C° 0.9 mm 3 mps 647 mmHg 94%
    11:00 -9°C° 0.9 mm 3 mps 647 mmHg 93%
    12:00 -8°C° 1.2 mm 3 mps 647 mmHg 93%
    13:00 -8°C° 1.2 mm 3 mps 647 mmHg 93%
    14:00 -8°C° 1.2 mm 3 mps 647 mmHg 93%
    15:00 -7°C° 0.6 mm 2 mps 648 mmHg 93%
    16:00 -7°C° 0.6 mm 2 mps 648 mmHg 94%
    17:00 -7°C° 0.6 mm 2 mps 649 mmHg 94%
    18:00 -7°C° 0.4 mm 2 mps 649 mmHg 94%
    19:00 -8°C° 0.4 mm 2 mps 650 mmHg 95%
    20:00 -9°C° 0.4 mm 2 mps 650 mmHg 95%
    21:00 -10°C° 0.2 mm 2 mps 651 mmHg 94%
    22:00 -12°C° 0.2 mm 2 mps 651 mmHg 94%
    23:00 -12°C° 0.2 mm 2 mps 651 mmHg 93%

    1 March, Thursday

    Time Temperature Precipitation Wind Pressure Humidity
    00:00 -13°C° 0.1 mm 2 mps 652 mmHg 91%
    01:00 -14°C° 0.1 mm 2 mps 652 mmHg 89%
    02:00 -15°C° 0.1 mm 2 mps 652 mmHg 88%
    03:00 -15°C° 0 mm 2 mps 652 mmHg 86%
    04:00 -16°C° 0 mm 2 mps 652 mmHg 85%
    05:00 -17°C° 0 mm 2 mps 652 mmHg 83%
    06:00 -16°C° 0 mm 2 mps 652 mmHg 82%
    07:00 -16°C° 0 mm 2 mps 652 mmHg 82%
    08:00 -15°C° 0 mm 2 mps 653 mmHg 81%
    09:00 -13°C° 0 mm 2 mps 653 mmHg 81%
    10:00 -9°C° 0 mm 1 mps 654 mmHg 80%
    11:00 -7°C° 0 mm 1 mps 655 mmHg 80%
    12:00 -6°C° 0 mm 1 mps 654 mmHg 82%
    13:00 -7°C° 0 mm 2 mps 654 mmHg 84%
    14:00 -6°C° 0 mm 2 mps 654 mmHg 86%
    15:00 -6°C° 0 mm 2 mps 654 mmHg 88%
    16:00 -7°C° 0 mm 2 mps 653 mmHg 89%
    17:00 -6°C° 0 mm 1 mps 653 mmHg 90%
    18:00 -7°C° 0 mm 1 mps 653 mmHg 91%
    19:00 -9°C° 0 mm 1 mps 653 mmHg 92%
    20:00 -10°C° 0 mm 1 mps 652 mmHg 93%
    21:00 -10°C° 0 mm 1 mps 652 mmHg 91%
    22:00 -10°C° 0 mm 1 mps 652 mmHg 89%
    23:00 -11°C° 0 mm 1 mps 652 mmHg 88%

    2 March, Friday

    Time Temperature Precipitation Wind Pressure Humidity
    00:00 -11°C° 0 mm 1 mps 652 mmHg 87%
    01:00 -11°C° 0 mm 1 mps 651 mmHg 86%
    02:00 -11°C° 0 mm 1 mps 651 mmHg 85%
    03:00 -10°C° 0 mm 1 mps 651 mmHg 86%
    04:00 -9°C° 0 mm 1 mps 651 mmHg 87%
    05:00 -9°C° 0 mm 1 mps 650 mmHg 88%
    06:00 -8°C° 0 mm 1 mps 651 mmHg 90%
    07:00 -7°C° 0 mm 1 mps 651 mmHg 91%
    08:00 -6°C° 0 mm 1 mps 651 mmHg 93%
    09:00 -4°C° 0.1 mm 1 mps 651 mmHg 94%
    10:00 -3°C° 0.1 mm 1 mps 651 mmHg 96%
    11:00 -4°C° 0.1 mm 2 mps 651 mmHg 97%
    12:00 -4°C° 0.1 mm 2 mps 651 mmHg 97%
    13:00 -4°C° 0.1 mm 2 mps 651 mmHg 98%
    14:00 -1°C° 0.1 mm 1 mps 650 mmHg 98%
    15:00 -1°C° 0.1 mm 1 mps 650 mmHg 98%
    16:00 -1°C° 0.1 mm 1 mps 650 mmHg 98%
    17:00 -1°C° 0.1 mm 1 mps 650 mmHg 98%
    18:00 -1°C° 0.1 mm 1 mps 649 mmHg 98%
    19:00 -1°C° 0.1 mm 1 mps 649 mmHg 97%
    20:00 -2°C° 0.1 mm 1 mps 649 mmHg 97%
    21:00 -2°C° 0.2 mm 1 mps 649 mmHg 96%
    22:00 -1°C° 0.2 mm 1 mps 649 mmHg 96%
    23:00 -1°C° 0.2 mm 1 mps 649 mmHg 96%
    Show more